KKYDRYRI2 Weather Reports


Display with metric or nautical units.
time (UTC)temp
F
wind
direction
speed
MPH
gust
MPH
rain 1hr
in
rain 24hr
in
rain mn
in
humidity
%
barometer
mb
20260508205548 72 0 3.0 11.0 0.00 0.00 0.00 41 1011.6
20260508204529 72 55 4.0 10.0 0.00 0.00 0.00 42 1011.9
20260508203512 71 329 2.0 11.0 0.00 0.00 0.00 45 1011.9
20260508202508 70 336 3.0 11.0 0.00 0.00 0.00 44 1012.1
20260508201505 71 0 3.0 10.0 0.00 0.00 0.00 41 1012.3
20260508200457 71 355 3.0 15.0 0.00 0.00 0.00 44 1012.5
20260508195459 71 5 3.0 15.0 0.00 0.00 0.00 44 1012.5
20260508194457 71 355 5.0 13.0 0.00 0.00 0.00 42 1012.4
20260508193507 71 0 4.0 15.0 0.00 0.00 0.00 41 1012.6
20260508192441 71 339 4.0 16.0 0.00 0.00 0.00 43 1012.6
20260508191458 70 80 5.0 19.0 0.00 0.00 0.00 43 1012.8
20260508190520 70 320 6.0 19.0 0.00 0.00 0.00 43 1013.0
20260508185446 70 19 4.0 14.0 0.00 0.00 0.00 43 1013.1
20260508184445 70 345 4.0 15.0 0.00 0.00 0.00 41 1013.3
20260508183419 70 89 4.0 15.0 0.00 0.00 0.00 42 1013.4
20260508182435 70 111 4.0 15.0 0.00 0.00 0.00 44 1013.5
20260508181423 70 328 4.0 16.0 0.00 0.00 0.00 41 1013.6
20260508175306 69 0 4.0 13.0 0.00 0.00 0.00 42 1014.3
20260508173113 68 321 5.0 15.0 0.00 0.00 0.00 45 1014.6
20260508172105 68 324 4.0 14.0 0.00 0.00 0.00 46 1014.7
20260508170029 68 67 4.0 11.0 0.00 0.00 0.00 47 1015.2
20260508165010 68 84 3.0 11.0 0.00 0.00 0.00 49 1015.6
20260508164000 67 288 3.0 13.0 0.00 0.00 0.00 48 1015.8
20260508162959 67 17 4.0 13.0 0.00 0.00 0.00 49 1016.0
20260508162000 67 28 3.0 13.0 0.00 0.00 0.00 50 1016.0
20260508160931 66 66 4.0 13.0 0.00 0.00 0.00 49 1016.5
20260508155906 66 313 3.0 12.0 0.00 0.00 0.00 51 1016.4
20260508154927 66 296 3.0 13.0 0.00 0.00 0.00 52 1016.6
20260508152728 64 36 3.0 11.0 0.00 0.00 0.00 53 1016.7
20260508151655 64 42 2.0 11.0 0.00 0.00 0.00 53 1016.9
20260508150649 63 88 3.0 12.0 0.00 0.00 0.00 52 1017.0
20260508145709 63 29 4.0 12.0 0.00 0.00 0.00 53 1017.1
20260508144700 62 76 3.0 10.0 0.00 0.00 0.00 56 1017.1
20260508143644 62 28 2.0 8.0 0.00 0.00 0.00 57 1017.0
20260508142706 61 16 3.0 11.0 0.00 0.00 0.00 57 1017.1
20260508141714 60 167 2.0 12.0 0.00 0.00 0.00 60 1017.2
20260508140725 59 112 3.0 12.0 0.00 0.00 0.00 60 1017.3
20260508135744 59 27 3.0 9.0 0.00 0.00 0.00 59 1017.4
20260508134736 58 355 1.0 6.0 0.00 0.00 0.00 61 1017.4
20260508133712 58 355 1.0 6.0 0.00 0.00 0.00 61 1017.4
20260508132705 57 262 3.0 13.0 0.00 0.00 0.00 60 1017.3
20260508131632 57 327 2.0 13.0 0.00 0.00 0.00 60 1017.3
20260508130612 56 335 2.0 11.0 0.00 0.00 0.00 60 1017.3
20260508125621 55 95 1.0 7.0 0.00 0.00 0.00 62 1017.2
20260508124638 54 62 1.0 5.0 0.00 0.00 0.00 64 1017.3
20260508123656 53 53 1.0 5.0 0.00 0.00 0.00 66 1017.3
20260508122720 52 13 0.0 2.0 0.00 0.00 0.00 67 1017.2
20260508121702 52 113 0.0 6.0 0.00 0.00 0.00 68 1017.2
20260508120723 51 355 0.0 6.0 0.00 0.00 0.00 68 1017.3
20260508115703 50 40 1.0 4.0 0.00 0.00 0.00 69 1017.2
20260508114633 50 5 1.0 5.0 0.00 0.00 0.00 69 1017.1
20260508113611 49 355 1.0 5.0 0.00 0.00 0.00 70 1017.0
20260508112636 48 9 1.0 3.0 0.00 0.00 0.00 71 1016.9
20260508111606 48 344 0.0 3.0 0.00 0.00 0.00 72 1016.9
20260508110606 48 44 0.0 3.0 0.00 0.00 0.00 72 1016.9
20260508105621 48 348 0.0 3.0 0.00 0.00 0.00 73 1016.9
20260508104635 48 342 0.0 3.0 0.00 0.00 0.00 73 1016.8
20260508103621 48 9 0.0 3.0 0.00 0.00 0.00 73 1016.8
20260508102640 47 355 0.0 3.0 0.00 0.00 0.00 74 1016.7
20260508100438 47 136 0.0 1.0 0.00 0.00 0.00 77 1016.7
20260508095410 47 136 0.0 0.0 0.00 0.00 0.00 81 1016.7
20260508094427 46 136 0.0 1.0 0.00 0.00 0.00 79 1016.7
20260508093431 45 136 0.0 1.0 0.00 0.00 0.00 83 1016.6
20260508092436 45 136 0.0 0.0 0.00 0.00 0.00 89 1016.6
20260508090232 45 136 0.0 1.0 0.00 0.00 0.00 89 1016.5
20260508085241 45 136 0.0 1.0 0.00 0.00 0.00 89 1016.5
20260508084249 45 136 0.0 0.0 0.00 0.00 0.00 88 1016.5
20260508082104 46 136 0.0 0.0 0.00 0.00 0.00 88 1016.2
20260508081053 46 136 0.0 1.0 0.00 0.00 0.00 87 1016.1
20260508080027 45 136 0.0 1.0 0.00 0.00 0.00 87 1016.2
20260508075035 45 136 0.0 0.0 0.00 0.00 0.00 89 1016.2
20260508072859 44 136 0.0 0.0 0.00 0.00 0.00 90 1016.5
20260508071905 44 136 0.0 0.0 0.00 0.00 0.00 90 1016.6
20260508070840 44 136 0.0 0.0 0.00 0.00 0.00 91 1016.7
20260508065811 44 136 0.0 0.0 0.00 0.00 0.00 91 1016.8
20260508064755 44 136 0.0 0.0 0.00 0.00 0.00 92 1016.8
20260508062645 44 136 0.0 1.0 0.00 0.00 0.00 93 1017.0
20260508061630 44 136 0.0 0.0 0.00 0.00 0.00 93 1017.0
20260508055518 44 136 0.0 2.0 0.00 0.00 0.00 93 1017.1
20260508053345 44 136 0.0 0.0 0.00 0.00 0.00 93 1017.1
20260508052314 44 136 0.0 0.0 0.00 0.00 0.00 93 1017.1
20260508051316 44 136 0.0 1.0 0.00 0.00 0.00 93 1017.1
20260508050305 44 136 0.0 1.0 0.00 0.00 0.00 93 1016.9
20260508045307 44 136 0.0 0.0 0.00 0.00 0.00 93 1017.0
20260508044255 44 136 0.0 0.0 0.00 0.00 0.00 93 1017.1
20260508043308 44 136 0.0 1.0 0.00 0.00 0.00 93 1017.2
20260508042236 44 136 0.0 0.0 0.00 0.00 0.00 92 1017.1
20260508041233 45 136 0.0 0.0 0.00 0.00 0.00 92 1017.0
20260508034023 46 136 0.0 1.0 0.00 0.00 0.00 91 1017.0
20260508032956 46 136 0.0 0.0 0.00 0.00 0.00 91 1017.1
20260508031946 46 136 0.0 0.0 0.00 0.00 0.00 90 1017.1
20260508030931 46 136 0.0 1.0 0.00 0.00 0.00 89 1017.1
20260508025915 46 136 0.0 0.0 0.00 0.00 0.00 89 1017.2
20260508024858 47 136 0.0 1.0 0.00 0.00 0.00 88 1017.1
20260508021544 48 136 0.0 0.0 0.00 0.00 0.00 85 1017.0
20260508020521 48 136 0.0 2.0 0.00 0.00 0.00 84 1017.0
20260508014442 49 136 0.0 2.0 0.00 0.00 0.00 81 1016.8
20260508013457 49 136 0.0 1.0 0.00 0.00 0.00 80 1016.6
20260508012506 50 136 0.0 1.0 0.00 0.00 0.00 79 1016.5
20260508011439 51 136 0.0 1.0 0.00 0.00 0.00 77 1016.4
20260508010433 52 136 0.0 1.0 0.00 0.00 0.00 75 1016.3
20260508005405 53 136 0.0 1.0 0.00 0.00 0.00 74 1016.2
20260508004408 54 136 1.0 1.0 0.00 0.00 0.00 71 1016.1
20260508003402 55 136 1.0 2.0 0.00 0.00 0.00 72 1016.0
20260508002408 56 136 1.0 2.0 0.00 0.00 0.00 67 1016.0
20260508001351 58 136 0.0 2.0 0.00 0.00 0.00 63 1015.8
20260508000320 59 136 0.0 2.0 0.00 0.00 0.00 59 1015.8
20260507235310 60 136 0.0 2.0 0.00 0.00 0.00 49 1015.8
20260507234334 62 136 0.0 2.0 0.00 0.00 0.00 44 1015.7
20260507233332 63 137 0.0 4.0 0.00 0.00 0.00 45 1015.7
20260507232327 62 140 1.0 4.0 0.00 0.00 0.00 45 1015.7
20260507231305 63 127 0.0 3.0 0.00 0.00 0.00 43 1015.6
20260507230253 62 135 2.0 7.0 0.00 0.00 0.00 42 1015.7
20260507224119 62 141 3.0 7.0 0.00 0.00 0.00 45 1015.6
20260507223111 62 142 3.0 8.0 0.00 0.00 0.00 41 1015.6
20260507222116 62 138 3.0 8.0 0.00 0.00 0.00 41 1015.7
20260507221121 62 24 2.0 8.0 0.00 0.00 0.00 41 1015.5
20260507220140 62 149 3.0 11.0 0.00 0.00 0.00 42 1015.7
20260507215107 62 118 3.0 11.0 0.00 0.00 0.00 42 1015.6
20260507214108 63 120 3.0 8.0 0.00 0.00 0.00 42 1015.6
20260507211957 62 154 3.0 14.0 0.00 0.00 0.00 43 1015.5
20260507211000 62 146 3.0 14.0 0.00 0.00 0.00 44 1015.5
20260507210020 62 24 3.0 12.0 0.00 0.00 0.00 42 1015.4